Weather History for KN60 - June, 2013

Change the Weather History Date:

Friday, June 14, 2013

  Actual Average Record
Temperature  
Mean Temperature 70 °F -  
Max Temperature 78 °F 68 °F 84 °F (1997)
Min Temperature 61 °F 48 °F 43 °F (2008)
Cooling Degree Days 5    
Month to date cooling degree days 10  
Year to date cooling degree days 16  
Since 1 June cooling degree days 10  
Growing Degree Days 18 (Base 50)    
Moisture  
Dew Point 55 °F    
Average Humidity 64    
Maximum Humidity 84    
Minimum Humidity 43    
Precipitation  
Precipitation 0.01 in - - ()
Month to date precipitation 2.77  
Year to date precipitation 13.45  
Sea Level Pressure  
Sea Level Pressure 29.81 in    
Wind  
Wind Speed 11 mph (South)    
Max Wind Speed 24 mph    
Max Gust Speed 30 mph    
Averages and records for this station are not official NWS values.
T = Trace of Precipitation, MM = Missing Value Source: NWS Daily Summary

Daily Weather History Graph

Daily Weather History Graph

Search for Another Location

Airport or City:

Trip Planner

Search our weather history database for the weather conditions in past years. The results will help you decide how hot, cold, wet, or windy it might be!

Date:

Astronomy

Jun. 14, 2013 Rise Set
Actual Time 5:47 AM CDT 9:45 PM CDT
Civil Twilight 5:06 AM CDT 10:25 PM CDT
Nautical Twilight 4:10 AM CDT 11:22 PM CDT
Astronomical Twilight 2:41 AM CDT 12:52 AM CDT
Moon 11:46 AM CDT (6/14) 12:32 AM CDT (6/14)
Length of Visible Light 17h 19m
Length of Day
15h 57m
Waxing Crescent, 30% of the Moon is Illuminated
Jun 14
Waxing Crescent
Jun 16
First Quarter
Jun 23
Full
Jun 29
Last Quarter
Jul 8
New

Hourly Weather History & Observations

Time (CDT) Temp. Dew Point Humidity Pressure Visibility Wind Dir Wind Speed Gust Speed Precip Events Conditions
12:52 AM 64.9 °F 55.0 °F 70% 29.90 in - SE 8.1 mph - N/A   Unknown
1:52 AM 62.1 °F 55.0 °F 78% 29.88 in - SE 5.8 mph - N/A   Unknown
2:52 AM 61.0 °F 54.0 °F 78% 29.85 in - East 5.8 mph - N/A   Unknown
3:52 AM 62.1 °F 55.0 °F 78% 29.81 in - ESE 11.5 mph - N/A   Unknown
4:52 AM 62.1 °F 55.0 °F 78% 29.76 in - ESE 11.5 mph - N/A   Unknown
5:52 AM 62.1 °F 55.0 °F 78% 29.80 in - ESE 6.9 mph - N/A   Unknown
6:52 AM 61.0 °F 55.9 °F 83% 29.82 in - ESE 6.9 mph - 0.01 in   Unknown
7:52 AM 62.1 °F 57.0 °F 84% 29.80 in - SE 9.2 mph - N/A   Unknown
8:52 AM 64.0 °F 57.0 °F 78% 29.78 in - ESE 10.4 mph - N/A   Unknown
9:52 AM 66.0 °F 57.0 °F 73% 29.76 in - SE 9.2 mph - N/A   Unknown
10:52 AM 66.9 °F 57.9 °F 73% 29.75 in - SSE 12.7 mph - N/A   Unknown
11:52 AM 69.1 °F 59.0 °F 70% 29.75 in - South 11.5 mph - N/A   Unknown
12:52 PM 70.0 °F 60.1 °F 71% 29.77 in - South 6.9 mph - N/A   Unknown
1:52 PM 73.9 °F 61.0 °F 64% 29.77 in - WSW 8.1 mph - N/A   Unknown
2:52 PM 75.0 °F 61.0 °F 62% 29.78 in - WNW 16.1 mph - N/A   Unknown
3:52 PM 75.0 °F 55.9 °F 51% 29.78 in - WNW 17.3 mph 23.0 mph N/A   Unknown
4:52 PM 77.0 °F 55.0 °F 47% 29.78 in - West 17.3 mph 27.6 mph N/A   Unknown
5:52 PM 77.0 °F 53.1 °F 43% 29.79 in - West 16.1 mph - N/A   Unknown
6:52 PM 73.9 °F 53.1 °F 48% 29.81 in - WNW 23.0 mph 29.9 mph N/A   Unknown
7:52 PM 72.0 °F 51.1 °F 48% 29.82 in - WNW 18.4 mph 24.2 mph N/A   Unknown
8:52 PM 68.0 °F 48.0 °F 49% 29.85 in - WNW 24.2 mph 29.9 mph N/A   Unknown
9:52 PM 63.0 °F 46.9 °F 56% 29.87 in - WNW 13.8 mph - N/A   Unknown
10:52 PM 60.1 °F 46.9 °F 62% 29.89 in - WNW 5.8 mph - N/A   Unknown
11:52 PM 55.9 °F 48.0 °F 75% 29.90 in - Calm Calm - N/A   Unknown